Home > Time Zones > World Clock > Weather > Macau > Macau > Past weeks

Flag for Macau Weather past 2 weeks in Macau, Macau

Now
82 °F

Scattered clouds.


Feels Like: 89 °F
Forecast: 81 / 89 °F
Wind: 8 mph from Northeast

Location: Taipa

Current Time: Oct 1, 2014 at 8:48:00 AM

Latest Report: Oct 1, 2014 at 8:00 AM


Visibility: N/A

Pressure: 29.92 "Hg

Humidity: 79%

Dew point: 75 °F

Location of MacauLocation

Historic Weather in Macau — Graph

°F

Macau temperature yesterday

Maximum temperature yesterday: 91 °F (at 2:00 PM)
Minimum temperature yesterday: 82 °F (at 12:30 AM)
Average temperature yesterday: 86 °F

Past Weeks' High & Low Weather Summary

 TemperatureHumidityPressure
High91 °F (Sep 19, 12:00 PM)100% (Sep 17, 4:00 AM)29.95 "Hg (Sep 17, 4:00 AM)
Low77 °F (Sep 17, 3:46 AM)55% (Sep 21, 3:30 PM)29.47 "Hg (Sep 16, 7:00 AM)
Average84 °F76%29.80 "Hg
* Reported Sep 16 7:00 AM — Oct 1 7:30 AM, Macau, Weather by CustomWeather, © 2014

Note: Actual official high and low records may vary slightly from our data, if they occured in-between our weather recording intervals... More about our weather records

Advertising

Macau weather history for previous 24 hours

 ConditionsComfort  
Time TempWeatherWind HumidityBarometerVisibility
7:30 AM
Oct 1
82 °FScattered clouds.9 mph84%29.92 "HgN/A
7:00 AM82 °FScattered clouds.10 mph84%29.89 "HgN/A
6:30 AM82 °FScattered clouds.10 mph79%29.89 "HgN/A
6:00 AM81 °FPassing clouds.12 mph89%29.86 "HgN/A
5:30 AM81 °FPassing clouds.10 mph89%29.86 "HgN/A
5:00 AM81 °FPassing clouds.10 mph89%29.86 "HgN/A
4:30 AM81 °FThundershowers. Passing clouds.9 mph89%29.89 "HgN/A
4:00 AM79 °FThunderstorms. Partly cloudy.16 mph94%29.86 "Hg3 mi
3:30 AM79 °FStrong thunderstorms. Passing clouds.22 mph94%29.89 "Hg1 mi
3:00 AM84 °FThundershowers. Passing clouds.18 mph79%29.86 "Hg6 mi
2:30 AM84 °FPassing clouds.14 mph84%29.83 "Hg6 mi
2:00 AM84 °FPassing clouds.13 mph84%29.83 "Hg6 mi
1:30 AM82 °FPassing clouds.8 mph84%29.83 "Hg6 mi
1:00 AM82 °FPassing clouds.6 mph79%29.86 "HgN/A
12:30 AM82 °FPassing clouds.3 mph74%29.86 "HgN/A
12:00 AM82 °FPassing clouds.9 mph74%29.86 "HgN/A
11:30 PM
Sep 30
82 °FPassing clouds.7 mph74%29.86 "Hg6 mi
11:00 PM82 °FThundershowers. Passing clouds.9 mph74%29.86 "HgN/A
10:30 PM82 °FThundershowers. Passing clouds.15 mph74%29.86 "Hg6 mi
10:00 PM86 °FThundershowers. Passing clouds.6 mph79%29.86 "HgN/A
9:30 PM86 °FThundershowers. Passing clouds.8 mph79%29.86 "HgN/A
9:00 PM86 °FPassing clouds.5 mph79%29.83 "HgN/A
8:30 PM86 °FPassing clouds.7 mph79%29.83 "HgN/A
8:00 PM86 °FClear.7 mph79%29.83 "Hg10 mi
7:30 PM86 °FPassing clouds.7 mph79%29.83 "HgN/A
7:00 PM88 °FPassing clouds.7 mph75%29.80 "HgN/A
6:30 PM88 °FPassing clouds.8 mph75%29.80 "HgN/A
6:00 PM88 °FPassing clouds.9 mph75%29.80 "HgN/A
5:30 PM90 °FPassing clouds.10 mph67%29.80 "HgN/A
5:00 PM90 °FPassing clouds.10 mph71%29.80 "HgN/A
4:30 PM90 °FPassing clouds.10 mph71%29.77 "HgN/A
4:00 PM90 °FPassing clouds.9 mph71%29.77 "HgN/A
3:30 PM90 °FPassing clouds.9 mph67%29.77 "HgN/A
3:00 PM91 °FPassing clouds.8 mph67%29.80 "Hg6 mi
2:30 PM90 °FPassing clouds.8 mph71%29.80 "Hg6 mi
2:00 PM91 °FPassing clouds.5 mph63%29.80 "Hg6 mi
1:30 PM90 °FPassing clouds.6 mph71%29.83 "HgN/A
1:00 PM90 °FPassing clouds.3 mph67%29.86 "HgN/A
12:30 PM90 °FPassing clouds.3 mph67%29.86 "HgN/A
12:00 PM90 °FPassing clouds.3 mph67%29.86 "HgN/A
11:30 AM90 °FPassing clouds.7 mph71%29.89 "HgN/A
11:00 AM90 °FPassing clouds.6 mph71%29.89 "HgN/A
10:30 AM88 °FPassing clouds.5 mph70%29.89 "HgN/A
10:00 AM88 °FPassing clouds.5 mph70%29.89 "HgN/A
9:30 AM88 °FSunny.2 mph70%29.89 "Hg10 mi
9:00 AM86 °FSunny.2 mph75%29.89 "Hg10 mi
8:30 AM86 °FSunny.6 mph75%29.89 "Hg10 mi
8:00 AM84 °FSunny.7 mph79%29.89 "Hg10 mi
Weather by CustomWeather, © 2014

See weather overviewHow to use our weather pages